Regional Weather Roundup
Issued by NWS

Home | Current Version | Previous Version | Graphics & Text | Print | Product List | Glossary On
Versions: 1 2 3 4 5 6 7 8 9 10 11 12 13 14 15 16 17 18 19 20 21 22 23 24 25 26 27 28 29 30 31 32 33 34 35 36 37 38 39 40 41 42 43 44 45 46 47 48 49 50
000
ASUS43 KDMX 300106
RWRIA

WEATHER ROUNDUP FOR IOWA
NATIONAL WEATHER SERVICE DES MOINES IA
800 PM CDT SAT APR 29 2017

NOTE: "FAIR" INDICATES FEW OR NO CLOUDS BELOW 12,000 FEET WITH NO
SIGNIFICANT WEATHER AND/OR OBSTRUCTIONS TO VISIBILITY.

* - THESE STATIONS ARE NOT NWS STATIONS...THUS NOT UNDER NWS
QUALITY CONTROL.  THEY ALSO DO NOT REPORT WEATHER SUCH
AS PRECIPITATION OR FOG.

IAZ001>003-012>014-020>022-031>034-043>046-300200-
   NORTHWEST IOWA

CITY           SKY/WX    TMP DP  RH WIND       PRES   REMARKS
CARROLL *      CLOUDY    45  34  65 NE24G30   30.04R
CHEROKEE *     CLOUDY    47  28  47 NE14G25   30.09R
DENISON *      CLOUDY    45  32  61 NE16G26   30.06R
LE MARS *      CLOUDY    50  27  40 NE16      30.11R
ORANGE CITY *  CLOUDY    48  28  46 E13       30.10R
SHELDON *      CLOUDY    48  27  43 NE17G26   30.07F
SIOUX CITY     CLOUDY    48  29  47 E16G22    30.08R
SPENCER        CLOUDY    48  29  47 NE17      30.09S
STORM LAKE *   CLOUDY    46  28  49 NE21G31   30.05F
$$

IAZ055>058-069>071-079>083-090>094-300200-
   SOUTHWEST IOWA

CITY           SKY/WX    TMP DP  RH WIND       PRES   REMARKS
ATLANTIC *     CLOUDY    43  37  81 NE18G26   30.00R
AUDUBON *      CLOUDY    43  36  75 NE15G26   30.03R
CLARINDA *     CLOUDY    43  41  93 NE17G25   29.96R FOG
COUNCIL BLFS * CLOUDY    41  41 100 NE21G36   29.99R FOG
CRESTON *      CLOUDY    39  39 100 NE24G33   29.96R FOG     WCI  28
HARLAN  *      CLOUDY    43  36  75 NE24G31   30.04R
LAMONI         LGT RAIN  42  40  92 NE18G28   29.94R FOG
RED OAK *      LGT RAIN  41  41 100 NE16G23   29.97R
SHENANDOAH *   MIX PCPN  43  41  93 NE17      29.95F VSB 3/4
$$

IAZ047>049-059>061-072>074-084-300200-
   CENTRAL IOWA

CITY           SKY/WX    TMP DP  RH WIND       PRES   REMARKS
AMES           CLOUDY    44  38  79 NE15      30.03F
ANKENY *       CLOUDY    43  36  75 NE21G28   30.01S
BOONE *        CLOUDY    43  37  81 NE18G25   30.01S
CHARITON *     MIX PCPN  41  39  93 NE14G23   29.95F
DES MOINES     DRIZZLE   43  38  82 NE18G25   29.99F
GRINNELL*      DRIZZLE   41  38  89 NE20G25   30.00S
KNOXVILLE *    CLOUDY    41  39  93 NE16      29.96F FOG
MARSHALLTOWN   CLOUDY    42  37  82 NE18G26   30.02F
NEWTON *       CLOUDY    41  37  87 NE16G30   29.98F FOG
PELLA *        DRIZZLE   41  40  95 NE9       29.98F
PERRY *        CLOUDY    43  36  75 NE14G23   30.02S
$$

IAZ004>006-015-016-023>025-035-036-300200-
   NORTH CENTRAL IOWA

CITY           SKY/WX    TMP DP  RH WIND       PRES   REMARKS
ALGONA *       CLOUDY    48  30  49 NE15G21   30.09F
CLARION *      CLOUDY    45  32  61 NE16G24   30.08S
ESTHERVILLE    CLOUDY    47  30  51 NE18      30.09S
FORT DODGE *   CLOUDY    45  30  57 NE12      30.07F
MASON CITY     CLOUDY    46  29  51 NE16      30.10R
FOREST CITY *  CLOUDY    46  23  39 NE12G20   30.09F
WEBSTER CITY * CLOUDY    45  32  61 NE18      30.03F
IOWA FALLS *   CLOUDY    45  35  67 NE16G22   30.06F
$$

IAZ007>011-017>019-026>030-037>042-050>054-066-300200-
   NORTHEAST IOWA

CITY           SKY/WX    TMP DP  RH WIND       PRES   REMARKS
CEDAR RAPIDS   LGT RAIN  41  38  89 NE26G36   29.99R FOG
CHARLES CITY * CLOUDY    46  28  49 NE14G23   30.10R
CLINTON *      CLOUDY    41  38  89 NE31G38   29.93R
DECORAH *      CLOUDY    45  30  57 NE10G22   30.09R
DUBUQUE        CLOUDY    41  34  76 NE24G36   30.01R
MONTICELLO *   CLOUDY    43  36  75 NE18G28   30.03R
OELWEIN *      CLOUDY    41  36  81 NE18      30.06S
WATERLOO       CLOUDY    43  33  68 NE17G25   30.08R
$$

IAZ064-065-067-068-078-300200-
   EAST CENTRAL IOWA

CITY           SKY/WX    TMP DP  RH WIND       PRES   REMARKS
DAVENPORT      CLOUDY    41  37  86 NE25G33   29.94R
IOWA CITY      LGT RAIN  43  37  79 NE21G28   30.01R
MT. PLEASANT * CLOUDY    41  40  97 NE15      29.99R
MUSCATINE *    CLOUDY    43  37  81 NE16G26   29.99R
QUAD CITIES    CLOUDY    41  37  86 NE15      29.93R
$$

IAZ062-063-075>077-085>089-095>099-300200-
   SOUTHEAST IOWA

CITY           SKY/WX    TMP DP  RH WIND       PRES   REMARKS
BURLINGTON     CLOUDY    42  41  96 NE16G23   29.95R
FAIRFIELD *    CLOUDY    41  39  93 NE16G22   29.98R FOG
FORT MADISON * CLOUDY    43  41  93 NE12G17   29.98R
KEOKUK *       CLOUDY    43  41  93 MISG      29.97R
OSKALOOSA *    LGT RAIN  41  39  95 NE16      29.97S
CENTERVILLE *  LGT RAIN  41  41 100 NE20      29.93F
OTTUMWA        LGT RAIN  42  41  96 NE17G25   29.96R FOG
WASHINGTON *   CLOUDY    43  39  87 NE21G26   29.99R
$$

ABBREVIATIONS USED IN REMARKS
   TC - TEMPERATURES IN CELSIUS
  WCI - WIND CHILL INDEX
   HX - HEAT INDEX
  VSB - VISIBILITY
$$





USA.gov is the U.S. government's official web portal to all federal, state and local government web resources and services.